FENGYUN 1C DEB, 30244

Orbit data source: Space-Track

FENGYUN 1C DEB, 30244 is space debris in SSO originally from a launch on Mon, 10 May 1999 UTC launched from the Taiyaun Space Center, China (TSC). Fengyun 1C debris stems from the Chinese weather satellite Fengyun-1C, which was intentionally destroyed by a Chinese anti-satellite missile in 2007. This event dramatically increased the amount of space debris, with thousands of trackable fragments posing hazards to satellites and human spaceflight. The Fengyun 1C debris cloud has become a focal point in discussions about space sustainability and the need for international regulations to prevent the creation of new debris.

Loading next visibility...
Identifier
30244, 1999-025XD
Orbit
SSO
Country
Flag of CNCN / PRC
Related business
Manufacturer
Unknown
Mission
Spacecraft
Bus & Motor
Unknown
Mass
Unknown
Launch date (UTC)
1999-05-10 (27 years ago)
Launch vehicle
Unknown
Launch site
Taiyaun Space Center, China (TSC)
Object type
Payload
Rocket body
Debris
Shape & HBR
Unknown shape, 0.1 m
Radar Cross Section
Medium (>0.1 m² and <1 m²)

Expand to show TLE details & history
Last TLE update: 10 hours ago

TLE from 10 hours ago
0 FENGYUN 1C DEB
1 30244U 99025XD  26254.21494800  .00000331  00000-0  19381-3 0  9997
2 30244  99.1160 155.2636 0008548 264.1540 249.5247 14.15349515 11975
Epoch: 2026-09-11T05:09Z
TLE epoch observation values (Epoch: 2026-09-11T05:09:31.507Z)
Latitude
26.08883°
Longitude
-87.87666°
Altitude
846.435 km
Speed
7.431 km/s
True Right ascension
22h 38m 59s
True Declination
25° 57' 18"
Sunlit
Object was in full shadow at epoch
Visualization orbit readout
Latitude
Unknown
Longitude
Unknown
Altitude
Unknown
Speed
Unknown
Apparent Right ascension
Unknown
Apparent Declination
Unknown
Sunlit
N/A
Visualization observer readout
Local Sidereal Time
07:33:43
Azimuth
Unknown
Elevation
Unknown
Doppler factor
Unknown
Orbital elements
Apogee altitude
844.477 km
Perigee altitude
832.139 km
Semi-major axis
7,216.445 km
Eccentricity
0.00085
Inclination
99.116°
RAAN
155.2636°
Arg. of periapsis
264.154°
True anomaly
249.43297°
Mean anomaly
249.5247°
Eccentric anomaly
249.47883°
Mean motion
3.54045 °/min
Orbital period
101.68 mins
BSTAR
0.00019381
Loading maneuver chart data...
Computing Atmospheric mass density...

Documentation

Showing up to 5 results
|